Weather History for KNSE - December, 2012

Change the Weather History Date:

Thursday, December 6, 2012

  Actual Average Record
Temperature  
Mean Temperature 64 °F -  
Max Temperature 77 °F 62 °F 80 °F (2014)
Min Temperature 51 °F 45 °F 28 °F (2006)
Degree Days  
Heating Degree Days 1    
Growing Degree Days 14 (Base 50)    
Moisture  
Dew Point 52 °F    
Average Humidity 75    
Maximum Humidity 93    
Minimum Humidity 40    
Precipitation  
Precipitation 0.00 in - - ()
Sea Level Pressure  
Sea Level Pressure 30.00 in    
Wind  
Wind Speed 3 mph (East)    
Max Wind Speed 10 mph    
Max Gust Speed -    
Visibility 7 miles    
Events Fog    
Averages and records for this station are not official NWS values.
T = Trace of Precipitation, MM = Missing Value Source: NWS Daily Summary

Daily Weather History Graph

Daily Weather History Graph

Search for Another Location

Airport or City:

Trip Planner

Search our weather history database for the weather conditions in past years. The results will help you decide how hot, cold, wet, or windy it might be!

Date:

Astronomy

Dec. 06, 2012 Rise Set
Actual Time 6:32 AM CST 4:46 PM CST
Civil Twilight 6:05 AM CST 5:12 PM CST
Nautical Twilight 5:35 AM CST 5:42 PM CST
Astronomical Twilight 5:06 AM CST 6:12 PM CST
Moon No Moon Rise 11:47 AM CST (12/6)
Length of Visible Light 11h 07m
Length of Day
10h 14m
Waning Gibbous, 49% of the Moon is Illuminated
Dec 6
Waning Gibbous
Dec 13
New
Dec 19
First Quarter
Dec 28
Full
Jan 4
Last Quarter

Hourly Weather History & Observations

Time (CST) Temp. Dew Point Humidity Pressure Visibility Wind Dir Wind Speed Gust Speed Precip Events Conditions
12:03 AM 55.4 °F 50.0 °F 82% 30.07 in 2.5 mi East 3.5 mph - N/A   Haze
12:10 AM 53.6 °F 50.0 °F 88% 30.06 in 6.0 mi East 3.5 mph - N/A   Clear
12:56 AM 55.0 °F 51.1 °F 86% 30.02 in 5.0 mi Calm Calm - N/A   Clear
1:28 AM 53.6 °F 48.2 °F 82% 30.06 in 2.0 mi North 3.5 mph - N/A   Clear
1:46 AM 53.6 °F 48.2 °F 82% 30.05 in 1.2 mi Calm Calm - N/A   Clear
1:56 AM 54.0 °F 50.0 °F 86% 30.01 in 0.5 mi Calm Calm - N/A Fog Fog
2:03 AM 51.8 °F 48.2 °F 88% 30.05 in 0.2 mi Calm Calm - N/A Fog Fog
2:18 AM 53.6 °F 50.0 °F 88% 30.04 in 0.5 mi Calm Calm - N/A Fog Fog
2:49 AM 51.8 °F 46.4 °F 82% 30.03 in 1.5 mi Calm Calm - N/A   Clear
2:52 AM 51.8 °F 46.4 °F 82% 30.03 in 4.0 mi Calm Calm - N/A   Clear
2:56 AM 53.1 °F 48.0 °F 83% 29.99 in 5.0 mi ESE 3.5 mph - N/A   Haze
3:56 AM 54.0 °F 50.0 °F 86% 29.99 in 7.0 mi NNE 3.5 mph - N/A   Clear
4:56 AM 53.1 °F 48.9 °F 86% 29.99 in 5.0 mi Calm Calm - N/A   Clear
5:56 AM 53.1 °F 51.1 °F 93% 30.01 in 6.0 mi Calm Calm - N/A   Scattered Clouds
6:56 AM 54.0 °F 51.1 °F 90% 30.01 in 9.0 mi NE 3.5 mph - N/A   Partly Cloudy
7:56 AM 60.1 °F 53.1 °F 78% 30.03 in 10.0 mi ENE 5.8 mph - N/A   Partly Cloudy
8:56 AM 64.9 °F 54.0 °F 68% 30.03 in 10.0 mi East 4.6 mph - N/A   Scattered Clouds
9:56 AM 70.0 °F 55.0 °F 59% 30.02 in 10.0 mi East 5.8 mph - N/A   Scattered Clouds
10:56 AM 75.0 °F 55.0 °F 50% 30.00 in 10.0 mi East 4.6 mph - N/A   Scattered Clouds
11:56 AM 75.9 °F 54.0 °F 46% 29.97 in 10.0 mi ESE 9.2 mph - N/A   Scattered Clouds
12:56 PM 77.0 °F 51.1 °F 40% 29.95 in 10.0 mi ESE 9.2 mph - N/A   Scattered Clouds
1:56 PM 75.0 °F 52.0 °F 44% 29.94 in 10.0 mi East 10.4 mph - N/A   Scattered Clouds
2:56 PM 77.0 °F 52.0 °F 42% 29.94 in 10.0 mi SE 4.6 mph - N/A   Scattered Clouds
3:56 PM 75.9 °F 52.0 °F 43% 29.93 in 10.0 mi East 5.8 mph - N/A   Scattered Clouds
4:56 PM 66.9 °F 53.1 °F 61% 29.94 in 10.0 mi East 4.6 mph - N/A   Scattered Clouds
5:56 PM 66.0 °F 60.1 °F 81% 29.96 in 10.0 mi Calm Calm - N/A   Scattered Clouds
6:56 PM 59.0 °F 57.0 °F 93% 29.96 in 10.0 mi Calm Calm - N/A   Scattered Clouds
7:56 PM 62.1 °F 57.0 °F 84% 29.96 in 8.0 mi Calm Calm - N/A   Clear
8:56 PM 55.9 °F 52.0 °F 87% 29.97 in 10.0 mi NNE 3.5 mph - N/A   Partly Cloudy
9:56 PM 59.0 °F 53.1 °F 81% 29.96 in 10.0 mi ENE 3.5 mph - N/A   Partly Cloudy
10:56 PM 61.0 °F 55.0 °F 81% 29.96 in 10.0 mi East 4.6 mph - N/A   Clear
11:56 PM 60.1 °F 53.1 °F 78% 29.94 in 10.0 mi East 8.1 mph - N/A   Clear